STARLINK-34314, 64146

Orbit data source: Space-Track

STARLINK-34314, 64146 is a payload satellite owned by SpaceX/Seattle (US) in SSO that was launched on Tue, 27 May 2025 UTC via an FALCON 9 launch vehicle from the Air Force Western Test Range (AFWTR). Payload-class satellites include a variety of spacecraft equipped with specific instruments for various scientific and technological missions. These include communications satellites like Starlink; space stations such as the ISS; scientific satellites like the Hubble; Earth observation satellites from companies like Planet Labs, Umbra, and HawkEye 360; GPS; miniature CubeSats for education and research; and military/defense satellites.

Loading next visibility...
Identifier
64146, 2025-112A
Orbit
SSO
Country
Flag of USUS
Related business
Manufacturer
SpaceX/Seattle
Mission
Operational Commercial Communications
Bus & Motor
STARLINK V2MO, Unknown motor
Mass
575 kg wet, ~530 kg dry
Launch date (UTC)
2025-05-27 (1 year ago)
Launch vehicle
FALCON 9
Launch site
Air Force Western Test Range (AFWTR)
Object type
Payload
Rocket body
Debris
Shape & HBR
Box + 2 Pan, 17.7 m
Radar Cross Section
36.964 m², Large (>1 m²)

Expand to show TLE details & history
Last TLE update: 17 hours ago

TLE from 17 hours ago
0 STARLINK-34314
1 64146U 25112A   26197.66454648  .00002338  00000-0  16586-3 0  9995
2 64146  97.2839 246.4868 0001812 109.9476 250.1947 15.05659550 62712
Epoch: 2026-07-16T15:56Z
TLE epoch observation values (Epoch: 2026-07-16T15:56:56.815Z)
Latitude
-0.00005°
Longitude
72.74732°
Altitude
552.982 km
Speed
7.585 km/s
True Right ascension
16h 25m 56s
True Declination
0° 00' 00"
Sunlit
Object was in full shadow at epoch
Visualization orbit readout
Latitude
Unknown
Longitude
Unknown
Altitude
Unknown
Speed
Unknown
Apparent Right ascension
Unknown
Apparent Declination
Unknown
Sunlit
N/A
Visualization observer readout
Local Sidereal Time
21:08:10
Azimuth
Unknown
Elevation
Unknown
Doppler factor
Unknown
Orbital elements
Apogee altitude
547.716 km
Perigee altitude
545.207 km
Semi-major axis
6,924.599 km
Eccentricity
0.00018
Inclination
97.2839°
RAAN
246.4868°
Arg. of periapsis
109.9476°
True anomaly
250.17517°
Mean anomaly
250.1947°
Eccentric anomaly
250.18493°
Mean motion
3.76662 °/min
Orbital period
95.58 mins
BSTAR
0.00016586
Loading maneuver chart data...
Computing Atmospheric mass density...
Loading historical data...
Loading historical data...
Loading historical data...
Loading historical data...
Loading historical data...
Loading historical data...
Loading historical data...

Documentation

Showing up to 5 results
|